Hourly Data Report for October 02, 2015

All times are specified in Local Standard Time (LST). Add 1 hour to adjust for Daylight Saving Time where and when it is observed.

WINNIPEG A CS
MANITOBA

49°55'00.000" N
97°14'58.000" W
238.70 m
502S001
71849
XWG

Download Data

Hourly Data (October 2015)
Hourly Data Report for October 2, 2015
Temp Definition
°C
Dew Point Temp Definition
°C
Rel Hum Definition
%
Wind Dir Definition
10's deg

Wind Spd Definition
km/h
Visibility Definition
km
Stn Press Definition
kPa
Hmdx Definition


Wind Chill Definition


Weather Definition


TIME
00:00 10.9 3.8 62 14 20   100.31     LegendNANA
01:00 9.5 3.5 66 15 17   100.35     LegendNANA
02:00 9.0 3.6 69 13 18   100.38     LegendNANA
03:00 8.4 3.6 72 14 19   100.35     LegendNANA
04:00 7.5 3.8 77 15 17   100.38     LegendNANA
05:00 7.5 3.5 76 15 19   100.38     LegendNANA
06:00 6.9 2.4 73 15 20   100.41     LegendNANA
07:00 6.6 2.4 75 15 22   100.42     LegendNANA
08:00 7.5 3.3 74 15 22   100.42     LegendNANA
09:00 9.6 3.8 67 16 20   100.40     LegendNANA
10:00 12.0 4.2 59 17 22   100.39     LegendNANA
11:00 13.5 3.8 52 15 22   100.34     LegendNANA
12:00 15.6 3.2 44 15 25   100.28     LegendNANA
13:00 17.3 3.3 39 15 24   100.17     LegendNANA
14:00 17.2 1.8 35 15 28   100.08     LegendNANA
15:00 17.4 0.4 32 14 30   100.02     LegendNANA
16:00 17.1 0.5 33 15 29   99.97     LegendNANA
17:00 16.1 0.5 35 15 22   99.94     LegendNANA
18:00 13.8 1.9 45 12 25   99.95     LegendNANA
19:00 12.5 0.3 43 13 26   99.95     LegendNANA
20:00 11.7 0.9 47 13 23   99.95     LegendNANA
21:00 10.3 1.4 54 12 21   99.95     LegendNANA
22:00 9.6 2.8 63 13 19   99.92     LegendNANA
23:00 8.6 3.3 70 13 17   99.91     LegendNANA

Notes on Data Quality.

Legend

  • E = Estimated
  • M = Missing
  • NA = Not Available
  • ‡ = Partner data that is not subject to review by the National Climate Archives
Date modified: